Regional Weather Roundup
Issued by NWS

Home | Current Version | Previous Version | Text Only | Print | Product List | Glossary On
Versions: 1 2 3 4 5 6 7 8 9 10 11 12 13 14 15 16 17 18 19 20 21 22 23 24 25 26 27 28 29 30 31 32 33 34 35 36 37 38 39 40 41 42 43 44 45 46 47 48 49 50
000
ASUS43 KBIS 221110
RWRND

NORTH DAKOTA REGIONAL WEATHER ROUNDUP
NATIONAL WEATHER SERVICE BISMARCK ND
500 AM CST MON DEC 22 2014

NOTE: "FAIR" INDICATES FEW OR NO CLOUDS BELOW 12,000 FEET WITH NO
SIGNIFICANT WEATHER AND/OR OBSTRUCTIONS TO VISIBILITY.


NDZ001>003-009>011-017-221200-
NORTHWEST NORTH DAKOTA

CITY           SKY/WX    TMP DP  RH WIND       PRES   REMARKS
WILLISTON      LGT SNOW  30  28  92 NW17G23   29.47R FOG     WCI  18
MINOT          CLOUDY    28  26  92 NE3       29.46R FOG
MINOT AFB      FOG       28  28 100 E6        29.46S VSB 1
$$

NDZ018>021-031>035-040>046-221200-
SOUTHWEST NORTH DAKOTA

CITY           SKY/WX    TMP DP  RH WIND       PRES   REMARKS
BISMARCK       FOG       28  28 100 SE5       29.45S VSB 1/2
DICKINSON      FLURRIES  33  30  88 NW17      29.42R
GARRISON         N/A     28  28 100 E6        29.43R
HETTINGER ARPT MIX PCPN  35  32  88 NW17      29.45S
$$

NDZ004>008-012>016-024-026-027-054-221200-
NORTHEAST NORTH DAKOTA

CITY           SKY/WX    TMP DP  RH WIND       PRES   REMARKS
GRAND FORKS    CLOUDY    34  34 100 E6        29.52S FOG
GRND FRKS AFB  CLOUDY    34  34 100 SE6       29.53S FOG
DEVILS LAKE    CLOUDY    30  25  80 E5        29.47F
$$

NDZ022-023-025-028>030-036>039-047>053-221200-
SOUTHEAST NORTH DAKOTA

CITY           SKY/WX    TMP DP  RH WIND       PRES   REMARKS
FARGO          CLOUDY    38  36  92 SE14      29.49F
JAMESTOWN      CLOUDY    32  31  96 E6        29.44S FOG
$$




USA.gov is the U.S. government's official web portal to all federal, state and local government web resources and services.